Weather in Leninigorsk

Russia / Republic of Tatarstan     54°35′56″N   52°26′33″E
В апреле 2022 года жителям России запретили посещать сайт meteo.paraplan.net по решению Генеральной прокуратуры. Аудитория сайта уменьшилась в 10 раз. Владельцы сайта не видят смысла в поддержке погодного сервера в таких условиях. Сайт будет закрыт в октябре.
temp.,
°C
wind,
m/s
gust,
m/s
humid.,
%
clouds,
%
prec.,
mm/h
press.,
hPa
HPBL,
m
30 september, fri
fri3000:00+5ese5994100 0.3 1018347
03:00+5ese4894100 0.4 1020336
06:00+5ese4793100 0.0 1022300
09:00+6ese4688100 0.0 1023357
12:00+8ese557997 0.0 1024596
15:00+8ese5682100 0.0 1025574
18:00+6ese4787100 0.0 1026376
21:00+6se4788100 0.0 1026337
1 october, sat
sat100:00+6se368897 0.0 1026247
03:00+4ese3789100 0.0 1027210
06:00+4ese2790100 0.0 1027191
09:00+8se467062 0.0 1027363
12:00+12sse565541 0.0 1025679
15:00+13sse565411 0.0 1024824
18:00+9se39675 0.0 1024160
21:00+7se346859 0.0 102483
2 october, sun
sun200:00+6se346982 0.0 102368
03:00+5sse357350 0.0 102281
06:00+6sse397169 0.0 1021199
09:00+12s7135297 0.0 1020449
12:00+16s7114649 0.0 1019733
15:00+16s71250100 0.0 1018843
18:00+14s61470100 0.1 1018679
21:00+14s51468100 0.7 1017461
3 october, mon
mon300:00+12sse6146389 0.0 1017406
03:00+12s51362100 0.0 1018392
06:00+11s41267100 0.1 1018383
09:00+13s7146136 0.4 1019516
12:00+18s912435 0.0 1019840
15:00+18s712435 0.0 1020975
18:00+14s51450100 0.0 1022425
21:00+13s51547100 0.0 1023456
4 october, tue
tue400:00+12s51542100 0.0 1024425
03:00+11sse51542100 0.0 1025459
06:00+9sse61545100 0.0 1026410
09:00+13sse8143779 0.0 1027714
12:00+15sse81231100 0.0 10271029
15:00+14s71132100 0.0 10271000
18:00+12sse51334100 0.0 1029516
21:00+11sse51334100 0.0 1029441